sat.trackr.live / text

‹ back to catalog

2025-055B

NORAD 63292 · 2025-055B

PAYLOAD ACTIVE UNKNOWN

§ Identity

Operator
Country
PRC
Launch date
2025-03-17
Launch site
JSC
Launch vehicle
Mass (kg)
RCS (m²)

External: N2YO · Heavens-Above · Gunter

§ Orbital elements

Epoch: 2026-05-25T03:52:47.803296Z

Period
95.28 min
Inclination
97.6474°
Eccentricity
0.0035757
Mean motion
15.11304753 rev/d
Perigee alt
507.5 km
Apogee alt
556.9 km
Semi-major
6,910.4 km
B*
3.2867e-4
RAAN
285.9914°
Arg perigee
230.0147°
Mean anomaly
129.7942°
Rev number
6,560

§ Raw data

2025-055B1 63292U 25055B   26145.16166439  .00005552  00000+0  32867-3 0  99982 63292  97.6474 285.9914 0035757 230.0147 129.7942 15.11304753 65604

JSON: /api/v1/satellites/63292 · /tle

For live sub-satellite position, see the globe view (requires WebGL).

§ Visibility from observer

Set your observer location to see the next 7 days of passes ≥ 10°. The values pass through the URL so the page stays shareable.

No JS? Fill the form by hand. The geolocation button needs JavaScript.